Simultaneous Nadir Overpasses (SNOs) Predictions

Prediction of SNOs between NOAA-15 and METOP-C Satellite Orbit:

Table of predicted SNOs for the next 14.0 days since TLE Epoch: 7/18/2020
Index Date (NOAA-15) Time (NOAA-15) Lat,Lon (NOAA-15) SZA (NOAA-15 ) Date (METOP-C) Time (METOP-C) Lat,Lon (METOP-C) SZA (METOP-C ) Distance(km) Time Diff (sec)
1 07/28/2020 12:48:56 -80.94,-156.40 116.24 07/28/2020 12:47:43 -80.94,-156.48 116.28 1.40 73
2 07/28/2020 13:39:31 80.94, 10.79 63.76 07/28/2020 13:38:24 80.94, 10.85 63.74 1.05 67
3 07/28/2020 14:29:59 -80.94, 178.14 116.24 07/28/2020 14:29:05 -80.93, 178.03 116.28 2.33 54
4 07/28/2020 15:20:33 80.94, -14.31 63.79 07/28/2020 15:19:45 80.95, -14.29 63.78 1.65 48
5 07/28/2020 16:11:01 -80.94, 153.04 116.21 07/28/2020 16:10:26 -80.94, 152.90 116.24 2.66 35
6 07/28/2020 17:01:36 80.94, -39.77 63.79 07/28/2020 17:01:07 80.94, -39.78 63.78 0.32 29
7 07/28/2020 17:52:04 -80.95, 127.59 116.21 07/28/2020 17:51:47 -80.95, 127.77 116.19 3.19 17
8 07/28/2020 18:42:38 80.94, -64.87 63.82 07/28/2020 18:42:28 80.95, -64.91 63.82 1.85 10
9 07/28/2020 19:33:07 -80.96, 102.13 116.20 07/28/2020 19:33:09 -80.95, 102.27 116.19 2.71 2
10 07/28/2020 20:23:41 80.95, -90.33 63.82 07/28/2020 20:23:50 80.95, -90.40 63.82 1.34 9
11 07/28/2020 21:14:09 -80.95, 77.04 116.18 07/28/2020 21:14:30 -80.96, 77.14 116.15 2.01 21
12 07/28/2020 22:04:43 80.94,-115.43 63.85 07/28/2020 22:05:11 80.96,-115.54 63.86 2.60 28
13 07/28/2020 22:55:12 -80.96, 51.58 116.17 07/28/2020 22:55:52 -80.95, 51.65 116.15 1.54 40
14 07/28/2020 23:45:46 80.95,-140.89 63.85 07/28/2020 23:46:33 80.95,-141.03 63.86 2.47 47
15 07/29/2020 00:36:14 -80.95, 26.48 116.14 07/29/2020 00:37:13 -80.96, 26.51 116.11 1.10 59
16 07/29/2020 01:26:49 80.96,-166.35 63.86 07/29/2020 01:27:54 80.96,-166.16 63.90 3.32 65
